Flag Weather past 2 weeks in Yekaterinburg, Russia

Now
7 °F

Broken clouds.


Feels Like: -11 °F
Forecast: -5 / 4 °F
Wind: 15 mph from Northeast

Location: Ekaterinburg

Current Time: Nov 23, 2014 at 12:37:40 PM

Latest Report: Nov 23, 2014 at 11:30 AM


Visibility: N/A

Pressure: 30.15 "Hg

Humidity: 72%

Dew point: 0 °F

Location of YekaterinburgLocation

Historic Weather in Yekaterinburg — Graph

°F

Yekaterinburg temperature yesterday

Maximum temperature yesterday: 34 °F (at 12:00 AM)
Minimum temperature yesterday: 23 °F (at 8:30 PM)
Average temperature yesterday: 30 °F

Past Weeks' High & Low Weather Summary

 TemperatureHumidityPressure
High36 °F (Nov 13, 8:30 AM)100% (Nov 9, 6:00 AM)30.57 "Hg (Nov 9, 6:00 AM)
Low-4 °F (Nov 17, 3:30 AM)57% (Nov 8, 3:00 PM)29.80 "Hg (Nov 23, 1:00 AM)
Average23 °F89%30.24 "Hg
* Reported Nov 8 11:00 AM — Nov 23 11:30 AM, Yekaterinburg, Weather by CustomWeather, © 2014

Note: Actual official high and low records may vary slightly from our data, if they occured in-between our weather recording intervals... More about our weather records

Advertising

Yekaterinburg weather history for previous 24 hours

 ConditionsComfort  
Time TempWeatherWind HumidityBarometerVisibility
11:30 AM
Nov 23
7 °FBroken clouds.15 mph72%30.15 "HgN/A
10:30 AM7 °FSnow flurries. Partly sunny.13 mph78%30.09 "Hg3 mi
10:00 AM9 °FSnow flurries. Partly sunny.17 mph78%30.07 "Hg4 mi
9:30 AM9 °FSnow flurries. Mostly cloudy.15 mph78%30.04 "Hg4 mi
9:00 AM9 °FSnow flurries. Mostly cloudy.10 mph85%30.01 "Hg4 mi
8:30 AM10 °FSnow flurries. Mostly cloudy.15 mph79%30.01 "Hg2 mi
8:00 AM10 °FSnow flurries. Mostly cloudy.15 mph85%29.98 "Hg3 mi
7:30 AM12 °FSnow flurries. Mostly cloudy.15 mph85%29.92 "Hg1 mi
7:00 AM14 °FSnow flurries. Overcast.20 mph85%29.89 "Hg2 mi
6:30 AM19 °FSnow showers. Overcast.22 mph93%29.86 "Hg1 mi
6:00 AM21 °FSnow showers. Overcast.8 mph93%29.83 "Hg1 mi
5:30 AM21 °FSnow flurries. Overcast.10 mph93%29.83 "Hg2 mi
5:00 AM21 °FSnow. Overcast.10 mph93%29.83 "Hg1 mi
4:30 AM21 °FSnow flurries. Overcast.13 mph93%29.80 "Hg4 mi
4:00 AM21 °FSnow flurries. Overcast.10 mph93%29.80 "Hg2 mi
3:30 AM21 °FSnow flurries. Overcast.13 mph93%29.80 "Hg2 mi
3:00 AM21 °FSnow flurries. Overcast.13 mph93%29.80 "Hg1 mi
2:30 AM21 °FSnow flurries. Overcast.15 mph93%29.80 "Hg2 mi
2:00 AM21 °FSnow flurries. Overcast.13 mph93%29.80 "Hg4 mi
1:30 AM21 °FSnow flurries. Mostly cloudy.10 mph93%29.80 "Hg2 mi
1:00 AM21 °FSnow flurries. Overcast.13 mph93%29.80 "Hg2 mi
12:30 AM23 °FSnow flurries. Overcast.13 mph86%29.83 "Hg2 mi
12:00 AM23 °FSnow flurries. Overcast.13 mph86%29.83 "HgN/A
11:30 PM
Nov 22
23 °FSnow flurries. Overcast.15 mph86%29.83 "Hg4 mi
11:00 PM23 °FSnow flurries. Overcast.15 mph86%29.83 "Hg4 mi
10:30 PM23 °FSnow flurries. Overcast.15 mph86%29.83 "Hg4 mi
10:00 PM23 °FSnow flurries. Overcast.15 mph86%29.83 "Hg4 mi
9:30 PM23 °FSnow flurries. Overcast.17 mph86%29.83 "Hg4 mi
9:00 PM23 °FSnow showers. Mostly cloudy.20 mph86%29.83 "Hg1 mi
8:30 PM23 °FSnow flurries. Overcast.22 mph93%29.86 "Hg3 mi
8:00 PM25 °FSnow flurries. Overcast.22 mph86%29.83 "Hg4 mi
7:30 PM25 °FSnow flurries. Overcast.22 mph86%29.83 "HgN/A
7:00 PM27 °FSnow flurries. Overcast.24 mph80%29.86 "HgN/A
6:30 PM27 °FLight snow. Overcast.24 mph93%29.86 "HgN/A
6:00 PM27 °FLight snow. Overcast.24 mph93%29.86 "HgN/A
5:30 PM28 °FOvercast.22 mph86%29.86 "HgN/A
5:00 PM28 °FOvercast.26 mph86%29.86 "HgN/A
4:30 PM30 °FLight snow. Overcast.24 mph86%29.86 "HgN/A
4:00 PM30 °FLight snow. Overcast.17 mph93%29.86 "HgN/A
3:30 PM30 °FLight snow. Overcast.15 mph93%29.89 "HgN/A
3:00 PM32 °FOvercast.22 mph87%29.89 "HgN/A
2:30 PM32 °FMostly cloudy.20 mph87%29.89 "HgN/A
2:00 PM32 °FMostly cloudy.15 mph87%29.92 "HgN/A
1:30 PM32 °FMostly cloudy.15 mph87%29.92 "HgN/A
1:00 PM34 °FCloudy.13 mph81%29.95 "HgN/A
12:30 PM34 °FCloudy.13 mph81%29.95 "HgN/A
12:00 PM34 °FMostly cloudy.10 mph81%29.98 "HgN/A
Weather by CustomWeather, © 2014

See weather overviewHow to use our weather pages